Location: Lafig�re
(44.4503°N, 4.0357°E)
Time: 16:43:50
(UTC+00:00)

S-56A Canister/Altair - Pass Details

Date: 27 January 2021
Orbit: 631 x 2501 km, 38.9° (Epoch: 04 March)

Event Time Altitude Azimuth Distance (km) Brightness Sun altitude
Rises 03:28:02 0° 260° (W) 2,979 - -39.1°
Reaches altitude 10° 03:30:26 10° 253° (WSW) 2,015 - -38.6°
Maximum altitude 03:34:37 42° 182° (S) 909 - -37.9°
Exits shadow 03:38:09 15° 116° (ESE) 1,804 9.9 -37.3°
Drops below altitude 10° 03:39:10 10° 111° (ESE) 2,189 10.4 -37.1°
Sets 03:41:53 0° 105° (ESE) 3,274 11.6 -36.6°
